Satellite: CO-57
Catalog number: 27848
Epoch time:      09168.53320528
Element set:    0550
Inclination:      098.7138 deg
RA of node:       176.7543 deg
Eccentricity:    0.0009955
Arg of perigee:   141.5102 deg
Mean anomaly:     218.6789 deg
Mean motion:   14.20444106 rev/day
Decay rate:        3.0e-07 rev/day^2
Epoch rev:           30927
Checksum:              316

Satellite: AO-51
Catalog number: 28375
Epoch time:      09168.58966554
Element set:    0415
Inclination:      098.0515 deg
RA of node:       178.1695 deg
Eccentricity:    0.0084359
Arg of perigee:   123.2237 deg
Mean anomaly:     237.7075 deg
Mean motion:   14.40644956 rev/day
Decay rate:        8.0e-08 rev/day^2
Epoch rev:           26101
Checksum:              331

Satellite: CO-56
Catalog number: 28941
Epoch time:      09168.91560107
Element set:    0174
Inclination:      098.1385 deg
RA of node:       343.4811 deg
Eccentricity:    0.0084411
Arg of perigee:   129.8711 deg
Mean anomaly:     231.0021 deg
Mean motion:   15.84780787 rev/day
Decay rate:     6.8576e-04 rev/day^2
Epoch rev:           18736
Checksum:              334

Satellite: GENESAT1
Catalog number: 29655
Epoch time:      09167.48152799
Element set:    0742
Inclination:      040.0245 deg
RA of node:       187.7385 deg
Eccentricity:    0.0000455
Arg of perigee:   115.4921 deg
Mean anomaly:     244.5941 deg
Mean motion:   15.65608158 rev/day
Decay rate:      7.861e-05 rev/day^2
Epoch rev:           14236
Checksum:              320

Satellite: CP3
Catalog number: 31129
Epoch time:      09169.34344490
Element set:       4
Inclination:      097.9879 deg
RA of node:       222.3633 deg
Eccentricity:    0.0101508
Arg of perigee:   282.0708 deg
Mean anomaly:     076.9131 deg
Mean motion:   14.52138917 rev/day
Decay rate:        9.0e-07 rev/day^2
Epoch rev:           11505
Checksum:              290

Satellite: CO-65
Catalog number: 32785
Epoch time:      09168.39520636
Element set:    0399
Inclination:      097.9456 deg
RA of node:       232.3606 deg
Eccentricity:    0.0015798
Arg of perigee:   034.1005 deg
Mean anomaly:     326.1228 deg
Mean motion:   14.81490665 rev/day
Decay rate:        3.5e-07 rev/day^2
Epoch rev:           06147
Checksum:              325

Satellite: KKS-1
Catalog number: 33493
Epoch time:      09169.38310467
Element set:     484
Inclination:      098.0574 deg
RA of node:       281.5973 deg
Eccentricity:    0.0018933
Arg of perigee:   236.3528 deg
Mean anomaly:     123.5880 deg
Mean motion:   14.80684685 rev/day
Decay rate:       1.86e-06 rev/day^2
Epoch rev:            2164
Checksum:              332

Satellite: SOHLA-1
Catalog number: 33496
Epoch time:      09169.33998438
Element set:     445
Inclination:      098.0387 deg
RA of node:       278.6297 deg
Eccentricity:    0.0005383
Arg of perigee:   284.2608 deg
Mean anomaly:     075.8019 deg
Mean motion:   14.69436895 rev/day
Decay rate:        1.0e-07 rev/day^2
Epoch rev:            2144
Checksum:              344

/EX
SB KEPS @ AMSAT  $ORB09169.W
Orbital Elements  09169.WEATHER

HR AMSAT ORBITAL ELEMENTS FOR WEATHER SATELLITES
FROM WA5QGD FORT WORTH,TX June 18, 2009
Send Subscribe/unsubscribe to KEPS at 
http://www.amsat.org/mailman/listinfo/keps
BID: ORB09169.W
TO ALL RADIO AMATEURS BT

Satellite: NOAA-10
Catalog number: 16969
Epoch time:      09168.64783734
Element set:    0652
Inclination:      098.6908 deg
RA of node:       195.2930 deg
Eccentricity:    0.0011958
Arg of perigee:   191.9899 deg
Mean anomaly:     168.0988 deg
Mean motion:   14.27388261 rev/day
Decay rate:       -6.9e-07 rev/day^2
Epoch rev:           18357
Checksum:              383

Satellite: NOAA-11
Catalog number: 19531
Epoch time:      09168.84382473
Element set:    0666
Inclination:      098.7848 deg
RA of node:       258.7868 deg
Eccentricity:    0.0012391
Arg of perigee:   105.9269 deg
Mean anomaly:     254.3256 deg
Mean motion:   14.14896982 rev/day
Decay rate:      -1.15e-06 rev/day^2
Epoch rev:           06961
Checksum:              357

Satellite: NOAA-12
Catalog number: 21263
Epoch time:      09168.94959527
Element set:    0171
Inclination:      098.7700 deg
RA of node:       177.0097 deg
Eccentricity:    0.0012898
Arg of perigee:   139.7470 deg
Mean anomaly:     220.4667 deg
Mean motion:   14.25582563 rev/day
Decay rate:        1.0e-07 rev/day^2
Epoch rev:           94050
Checksum:              319

Satellite: MET-3/5
Catalog number: 21655
Epoch time:      09168.90894435
Element set:    0669
Inclination:      082.5523 deg
RA of node:       205.9830 deg
Eccentricity:    0.0013110
Arg of perigee:   174.0485 deg
Mean anomaly:     186.0796 deg
Mean motion:   13.17019411 rev/day
Decay rate:        5.1e-07 rev/day^2
Epoch rev:           85772
Checksum:              312

Satellite: MET-2/21
Catalog number: 22782
Epoch time:      09168.90232003
Element set:     486
Inclination:      082.5472 deg
RA of node:       181.4402 deg
Eccentricity:    0.0022233
Arg of perigee:   349.0565 deg
Mean anomaly:     011.0103 deg
Mean motion:   13.83635670 rev/day
Decay rate:        3.8e-07 rev/day^2
Epoch rev:           79770
Checksum:              279

